Location: La Brionne
(46.1728°N, 1.7849°E)
Time: 08:16:01
(UTC+00:00)

Aureole 1 Rocket - Pass Details

Date: 16 June 2021
Orbit: 377 x 1372 km, 73.9° (Epoch: 31 July)

Event Time Altitude Azimuth Distance (km) Brightness Sun altitude
Rises 21:26:56 0° 338° (NNW) 3,246 8.5 -12.9°
Reaches altitude 10° 21:29:04 10° 339° (NNW) 2,449 7.5 -13.1°
Maximum altitude 21:34:49 87° 69° (ENE) 1,012 4.1 -13.7°
Enters shadow 21:40:22 19° 159° (SSE) 2,467 5.5 -14.2°
